Location: Austin
(30.3000°N, 97.7500°W)
Time: 20:43:11
(UTC-05:00)

Cosmos 1656 - Pass Details

Date: 11 June 2024
Orbit: 796 x 849 km, 71.1° (Epoch: 12 October)

Event Time Altitude Azimuth Distance (km) Brightness Sun altitude
Rises 21:10:16 0° 337° (NNW) 3,340 7.8 -7.7°
Reaches altitude 10° 21:12:41 10° 335° (NNW) 2,413 7.1 -8.2°
Maximum altitude 21:18:10 69° 253° (WSW) 884 4.0 -9.2°
Drops below altitude 10° 21:23:43 10° 171° (S) 2,436 5.7 -10.2°
Enters shadow 21:25:27 - 169° (S) 3,099 6.2 -10.5°
